Temp
21 21 20 19 19 19 19 19 19 19 19 19 18 19 19 19 19 19 18 18 18 18 18 18 18 18 18 18 18 18 18 19 19 19 18 18 18 18 18 18 18 19 18
21 21 19 19 19 19 19 19 19 19 19 19 19 19 18 19 19 19 19 19 19 19 18 18 18 19 19 18 18 18 18 19 19 19 19 19 19 18 18 18 18 18 18
21 20 19 19 19 19 19 19 19 19 19 18 18 18 18 19 18 18 18 18 18 18 18 18 18 18 18 19 19 18 18 18 19 19 19 20 19 19 18 18 18 18 18
19 19 18 18 18 18 18 18 18 18 18 18 18 18 18 18 18 18 18 18 18 18 18 18 18 18 18 18 18 18 18 18 18 18 20 20 20 19 18 18 18 18 17
17 18 18 18 18 18 18 18 18 18 18 18 18 18 18 18 18 18 18 18 18 18 18 18 18 18 18 18 18 18 18 18 18 18 19 19 19 19 19 18 18 18 18
18 18 17 17 18 18 18 18 18 18 18 17 18 18 18 18 18 18 18 17 18 17 17 17 18 18 18 18 18 18 18 18 18 19 19 19 18 18 18 17 18 18 17
18 17 16 16 17 17 18 18 18 17 17 18 18 18 18 18 18 18 18 17 17 17 17 17 18 18 18 18 18 18 18 18 18 19 19 19 19 18 17 17 17 18 18
16 15 15 16 17 17 17 17 16 17 17 18 17 17 17 17 17 17 17 17 17 17 17 17 17 17 18 18 18 17 17 18 19 19 19 19 18 18 17 17 17 18 18
15 15 15 15 17 17 16 16 16 16 16 16 16 16 16 16 16 16 16 16 16 16 17 17 17 17 17 17 17 17 17 17 18 19 19 19 18 18 17 17 18 18 18
14 15 15 15 15 15 15 16 16 16 16 16 16 16 15 15 15 16 15 16 16 16 16 16 16 16 16 17 17 17 17 17 18 18 19 17 17 16 16 17 17 17 17
14 14 15 14 14 14 14 15 15 15 15 15 15 15 14 14 14 14 15 15 15 15 15 16 16 16 16 16 16 16 17 17 18 18 18 16 16 16 16 16 16 16 16
15 14 14 14 14 14 14 14 14 14 13 13 13 13 14 13 13 13 14 14 14 14 15 15 15 15 16 16 16 16 16 16 17 16 16 15 15 16 16 16 16 16 16
15 14 13 14 14 14 14 14 14 14 13 13 13 13 13 13 13 14 14 14 14 14 14 14 15 15 15 15 15 16 15 15 16 15 13 14 14 15 15 15 15 15 15
14 13 13 13 13 14 13 14 14 14 13 13 12 12 13 13 13 13 13 13 13 13 14 14 14 14 14 14 14 15 15 15 14 12 12 13 14 14 14 14 14 14 15
14 13 13 13 13 13 13 13 13 13 13 12 12 12 12 12 12 13 13 13 13 13 13 13 14 14 14 14 14 14 14 14 12 13 12 12 12 13 13 13 13 14 14
14 13 13 13 13 13 13 12 12 13 12 12 12 11 11 12 12 12 12 12 12 12 12 13 13 13 13 13 14 13 12 12 13 12 12 11 11 12 11 12 12 13 13
15 13 13 13 13 12 12 12 12 12 12 12 11 11 11 11 11 11 11 12 11 11 12 12 13 13 13 13 11 11 12 12 12 12 11 10 10 11 11 10 11 11 12
15 14 13 13 12 12 12 12 11 11 11 11 11 11 10 11 11 11 11 11 10 11 11 12 12 13 13 11 11 10 11 12 11 11 11 11 10 10 11 11 11 10 10
15 14 13 12 12 12 12 11 11 11 11 11 11 10 10 10 10 11 11 10 10 10 11 11 11 12 13 11 10 11 11 12 11 11 10 10 10 9 10 10 10 10 9
14 13 13 12 12 12 11 11 11 11 10 10 10 10 10 10 10 10 10 10 10 10 10 10 11 11 11 11 11 10 11 11 10 10 10 10 9 9 9 9 9 8 9
13 13 13 12 12 12 12 12 12 12 11 10 10 10 10 10 10 9 9 9 9 9 9 9 10 11 11 10 12 12 11 11 11 10 10 10 9 9 8 8 8 8 8
13 13 12 12 12 12 11 11 11 11 10 10 9 10 10 10 10 9 10 9 9 9 9 9 9 10 10 9 13 13 15 13 11 10 10 9 9 8 8 7 7 7 7
13 13 13 12 12 12 11 11 11 11 10 10 10 9 10 10 10 10 10 10 9 10 9 9 9 9 11 9 9 11 14 15 13 11 10 9 9 9 8 7 7 6 6
13 13 12 12 12 12 11 11 10 11 12 11 10 9 9 9 9 10 10 10 10 10 9 8 9 8 8 10 9 8 9 10 13 14 11 10 9 8 8 8 7 6 6
13 12 12 12 12 11 12 10 10 10 10 10 10 9 9 9 10 10 10 10 10 10 9 9 8 7 7 8 9 9 9 9 9 11 13 13 10 9 8 7 7 7 6
12 12 12 11 11 11 11 11 11 10 10 10 10 10 10 9 9 10 10 10 10 9 9 8 8 8 7 7 7 7 8 10 11 10 11 12 10 10 8 7 6 6 6
Height
827 829 830 832 833 833 833 834 834 835 835 835 834 834 833 833 833 832 832 831 831 830 829 829 828 828 827 826 826 825 824 824 823 823 822 822 822 821 821 820 820 821 820
827 829 831 832 833 833 834 834 835 835 835 835 835 835 834 833 833 833 832 832 831 830 830 829 828 827 827 826 826 825 825 824 823 823 822 822 822 821 821 820 820 820 819
827 829 831 832 833 834 834 835 835 836 835 835 835 835 834 834 833 833 832 832 831 830 830 829 828 827 826 826 825 825 824 824 823 823 822 823 822 820 820 820 820 820 819
828 830 831 832 834 834 835 835 835 836 835 835 835 834 834 834 833 833 832 832 831 830 829 828 827 827 826 826 825 824 823 823 823 822 823 822 822 820 820 819 819 819 819
829 830 832 833 834 834 835 835 836 836 835 835 835 834 834 833 833 832 832 831 831 830 829 828 827 826 826 825 824 824 823 823 822 822 822 822 821 820 819 818 818 818 817
831 833 833 834 835 835 835 836 836 836 835 835 834 834 833 832 832 831 831 831 830 830 829 828 827 826 825 825 824 823 822 822 821 821 821 820 820 818 817 817 816 816 815
832 834 835 834 835 836 836 836 836 835 835 835 835 834 833 832 831 831 830 829 829 828 828 827 826 826 825 824 823 822 821 821 821 820 820 819 819 817 817 816 815 813 813
832 833 835 835 835 836 836 836 836 836 835 835 834 834 833 832 831 830 829 829 828 827 826 826 825 824 824 823 822 821 820 820 820 820 819 818 817 816 815 815 813 812 811
832 833 835 836 836 837 836 837 836 836 836 835 834 833 832 831 830 829 829 828 827 826 826 825 824 823 822 822 821 820 819 819 819 819 819 818 816 815 814 813 812 811 809
832 834 835 836 837 838 839 837 837 836 836 835 834 833 833 832 831 830 829 828 827 826 824 824 823 823 822 821 820 820 819 819 819 819 818 817 816 815 814 813 812 811 809
833 834 834 836 837 838 838 838 837 837 836 835 834 833 833 833 832 831 828 828 827 826 825 824 823 823 822 821 820 820 819 819 819 818 818 816 816 815 814 813 812 810 809
833 834 835 835 837 838 838 839 838 838 837 836 835 834 834 833 831 831 829 828 827 826 825 824 823 822 822 822 821 820 820 819 819 818 818 816 815 815 814 813 812 811 808
832 834 835 835 837 838 838 839 839 838 838 838 836 835 834 833 833 832 831 830 828 826 826 825 824 823 822 821 820 820 819 818 818 818 817 816 815 815 814 813 812 810 808
832 834 834 835 837 837 838 839 839 839 838 838 836 835 835 834 833 832 831 830 828 827 826 825 824 823 822 821 820 820 819 819 818 818 817 816 815 815 814 813 812 811 809
832 834 834 836 837 837 838 839 839 838 838 838 837 835 835 834 833 832 831 830 829 828 827 826 825 824 823 821 820 820 820 820 818 819 818 817 816 816 815 814 813 812 810
831 834 834 836 836 837 838 838 838 838 838 838 837 835 835 834 833 832 831 830 829 828 827 826 825 824 823 822 821 821 819 820 820 820 819 818 818 817 816 815 815 812 811
830 833 836 835 836 837 837 838 838 838 838 838 837 835 835 834 833 833 831 831 830 828 827 827 826 825 824 823 822 822 821 822 822 821 820 819 820 818 816 816 815 814 813
829 831 835 835 836 836 837 838 838 838 838 837 838 836 835 835 834 834 832 831 830 829 828 828 827 826 825 825 824 823 823 824 823 822 822 821 820 820 818 816 815 814 813
828 830 833 835 836 835 836 837 837 837 838 837 837 837 835 835 834 834 833 832 830 829 829 828 827 827 826 826 825 824 824 824 824 823 822 822 820 820 819 817 816 814 813
827 830 832 834 835 835 836 836 837 837 837 837 837 836 836 836 835 834 834 832 831 831 830 829 829 828 828 827 827 825 825 825 824 823 822 822 821 820 818 817 816 814 812
826 829 830 832 834 834 835 836 837 837 837 837 837 835 835 835 835 834 834 833 831 831 830 829 828 830 828 828 827 825 824 824 823 822 821 821 820 818 817 817 816 815 814
824 827 827 830 832 833 833 835 835 836 836 836 836 834 834 834 834 834 833 832 831 831 829 829 828 830 828 827 826 824 819 821 821 820 820 820 819 818 817 815 815 813 812
822 823 825 828 830 830 832 833 833 834 835 835 835 834 833 833 833 832 832 831 830 829 829 828 828 830 829 828 827 826 820 815 818 818 818 818 817 817 816 814 813 812 811
819 820 823 825 828 829 830 831 833 833 834 833 833 832 832 832 832 831 831 830 829 828 828 828 827 828 828 827 826 825 824 824 819 814 816 816 816 815 815 813 812 811 811
816 817 820 823 825 827 828 830 831 831 832 831 830 830 831 830 830 829 829 828 828 827 826 826 826 827 827 826 826 824 823 823 822 821 812 812 814 813 812 812 811 811 809
812 814 817 820 823 825 826 828 829 830 830 829 828 828 829 828 828 827 826 825 825 825 825 825 824 824 825 824 824 824 823 821 819 819 816 812 812 810 808 807 806 805 805
Wind_Speed
9 7 8 9 9 8 8 8 7 7 7 6 6 6 6 6 6 5 5 6 6 7 7 7 6 5 4 4 4 4 5 5 4 4 5 3 2 2 2 3 5 4 6
13 9 10 10 10 9 8 8 7 6 5 5 5 4 4 4 4 5 4 4 5 5 5 6 6 5 3 3 3 4 3 3 3 3 2 3 3 2 1 1 2 2 5
13 11 11 12 12 11 10 8 7 6 6 7 6 6 5 5 4 5 4 3 3 3 4 4 4 5 4 4 3 4 4 3 3 3 2 1 1 1 0 3 4 4 4
14 14 14 15 13 12 11 9 9 7 5 4 4 3 3 4 5 5 5 3 3 4 4 4 5 5 5 5 5 5 3 5 5 3 3 2 3 4 2 4 6 6 6
13 13 12 11 10 10 9 8 6 5 4 4 3 2 3 5 5 5 5 4 4 5 5 5 5 5 5 5 5 5 4 3 6 5 5 4 4 6 6 6 6 8 9
13 12 12 10 9 8 7 6 5 4 3 1 1 3 4 4 4 5 4 4 4 4 5 5 5 5 5 5 5 5 4 4 4 6 6 6 6 9 8 8 9 9 9
14 12 11 9 8 7 5 4 4 3 1 2 3 4 4 5 5 4 4 4 5 5 6 6 6 6 6 6 6 5 5 5 5 6 7 7 7 10 9 10 11 10 11
12 11 10 9 7 6 5 4 4 2 3 3 4 4 4 4 4 4 3 4 5 5 5 6 7 7 7 7 6 6 6 6 7 7 7 8 9 10 10 11 11 12 12
10 10 8 8 7 6 6 5 5 5 4 4 4 4 4 4 3 3 3 4 4 5 5 5 5 6 5 5 6 5 6 6 6 7 7 8 9 9 8 8 8 9 8
10 9 8 7 7 6 6 5 5 5 4 4 4 5 5 5 4 4 4 4 4 4 4 4 4 4 4 4 4 4 4 5 4 5 5 5 6 6 5 6 7 9 10
9 8 8 7 7 6 6 5 5 4 5 6 6 7 6 4 4 5 4 3 3 4 4 4 4 4 4 6 5 4 4 4 4 4 4 5 5 7 7 8 9 10 11
11 9 8 8 7 6 5 4 5 5 5 6 6 6 5 5 5 4 5 5 5 4 5 5 5 5 5 4 5 6 5 5 5 4 5 5 5 7 7 7 8 9 8
11 9 8 8 7 5 5 4 4 4 4 5 6 7 6 5 5 5 5 5 5 7 6 6 6 5 4 4 4 4 4 4 3 2 5 5 6 6 6 7 6 7 9
11 9 9 7 6 6 5 4 4 4 4 4 6 7 6 5 5 5 5 5 6 6 6 6 5 5 5 4 4 3 3 3 1 4 6 5 8 10 10 9 11 12 12
11 9 8 7 6 5 5 4 4 4 4 4 5 6 6 5 5 5 5 5 6 6 6 6 6 6 5 4 4 3 3 3 4 4 6 9 9 11 12 12 12 11 14
12 10 9 7 6 5 4 4 4 4 4 4 5 6 5 4 4 5 5 6 6 7 6 6 5 6 5 4 4 3 4 4 4 4 4 7 6 4 9 10 11 10 10
12 11 8 7 6 5 4 3 3 3 3 4 5 5 5 5 5 5 5 6 7 7 7 6 6 7 5 5 5 5 5 4 5 5 5 5 7 6 8 11 13 12 10
13 12 9 7 5 4 3 3 2 2 2 3 3 3 4 5 5 5 5 6 7 7 7 6 7 6 6 6 6 5 5 5 6 6 6 5 5 4 6 7 8 11 11
13 12 10 8 5 4 2 2 2 1 1 1 2 3 4 4 4 4 5 5 6 7 7 6 6 5 4 4 4 4 3 3 3 4 5 5 4 5 4 6 6 5 11
13 11 10 8 6 4 3 3 2 1 0 1 1 2 3 3 4 4 4 5 6 6 6 7 6 6 3 3 2 2 1 1 2 2 2 2 2 3 3 4 3 4 4
12 12 11 9 8 5 3 2 2 1 1 2 1 1 2 3 3 3 3 4 5 5 6 7 4 3 3 1 4 3 3 4 4 3 2 1 1 1 2 2 2 2 3
14 14 11 10 8 5 3 3 1 0 1 2 2 1 0 1 1 2 2 4 4 4 5 6 5 2 1 2 4 5 3 6 8 7 6 5 3 2 3 3 3 2 2
16 15 13 11 9 7 5 4 1 2 2 2 3 2 2 2 2 1 2 2 3 3 3 4 4 3 3 2 2 4 3 3 3 6 9 7 6 5 5 6 5 5 4
17 14 13 12 10 7 7 4 4 2 3 3 3 3 3 5 5 5 4 4 4 4 3 3 3 3 2 4 4 3 4 3 3 3 6 9 8 8 8 8 8 7 6
15 15 14 12 10 9 7 6 5 4 5 5 4 4 6 6 7 8 7 7 6 6 6 5 4 4 4 4 5 5 5 6 6 6 6 4 6 9 9 9 9 9 8
12 14 13 12 10 9 8 8 7 7 6 5 5 6 6 6 7 9 10 9 9 9 9 8 8 8 7 6 6 7 7 6 5 7 5 9 9 10 10 10 11 11 11
Wind_Direction
148 150 150 154 153 143 132 120 110 100 98 93 86 80 71 61 53 48 45 44 47 43 35 43 41 43 33 18 15 20 27 35 39 39 49 76 81 92 66 85 63 41 12
140 138 145 150 145 136 127 117 110 107 106 108 97 77 60 41 32 20 19 19 25 36 29 26 28 18 5 8 345 330 347 2 10 17 38 28 14 14 135 75 46 341 1
129 130 131 137 131 126 120 118 114 105 100 96 87 77 60 41 29 20 8 4 6 8 2 3 4 3 5 4 342 314 285 301 328 347 357 317 314 292 163 292 316 326 343
116 115 114 125 130 128 121 120 124 118 99 92 81 73 46 29 25 25 12 354 343 340 340 340 338 337 335 340 347 348 289 278 291 321 336 312 301 301 287 282 291 303 310
119 121 128 143 131 127 125 123 121 114 105 92 73 32 23 18 10 1 358 2 345 338 337 337 338 338 339 334 337 346 345 277 278 289 287 305 318 297 300 297 311 289 296
122 116 121 126 132 132 130 128 121 111 94 74 350 347 347 349 354 360 347 344 353 354 353 349 342 338 335 332 331 326 323 308 305 283 296 297 305 285 303 309 301 292 287
127 120 110 118 123 127 126 128 109 107 107 348 340 333 334 334 330 331 337 327 325 328 329 331 331 329 327 324 322 320 317 310 300 292 289 290 294 292 305 301 304 302 288
129 120 113 119 116 116 118 107 105 85 36 21 7 356 347 333 329 330 338 340 337 336 330 325 324 325 326 318 313 304 298 299 305 299 301 300 292 306 308 298 295 297 294
124 121 117 109 106 103 106 97 86 74 60 47 27 14 9 3 351 345 333 333 340 347 344 334 325 328 327 318 318 318 312 312 304 297 303 303 310 326 318 314 314 316 306
124 124 122 118 109 102 93 98 87 70 50 29 9 358 355 2 359 1 28 351 357 358 4 358 353 347 355 351 347 354 0 7 324 310 311 326 340 343 346 345 354 346 344
128 127 127 122 116 112 105 99 69 56 38 25 19 11 18 10 12 22 9 8 1 359 357 350 345 346 343 337 328 331 356 326 328 326 320 321 351 357 14 355 347 342 331
142 130 127 125 121 115 104 96 79 56 49 39 33 28 23 23 24 31 19 19 16 7 353 345 339 346 356 323 323 343 327 323 320 319 316 315 338 352 357 9 357 355 11
146 137 131 126 120 112 106 93 77 59 46 32 35 33 27 26 22 23 25 21 22 20 13 9 5 355 345 335 330 331 334 342 343 345 19 39 29 21 6 3 12 33 31
149 142 135 126 121 115 105 95 78 63 52 40 37 31 25 25 22 26 26 20 21 13 8 6 2 353 350 344 345 346 2 26 28 63 39 66 63 50 49 47 45 41 40
152 148 139 134 126 118 109 102 82 70 57 44 37 32 24 27 29 31 31 26 23 18 12 9 7 1 358 357 5 12 37 74 79 71 63 70 69 58 44 43 40 35 39
156 159 148 144 133 123 114 111 92 80 63 40 31 25 28 30 40 38 34 27 23 20 10 10 7 359 9 26 46 70 105 98 93 72 97 67 69 57 46 42 35 32 31
162 163 164 150 140 128 118 117 93 85 66 36 23 28 38 38 32 31 30 25 18 13 13 14 10 18 37 58 70 80 92 80 82 79 79 69 51 56 61 48 45 43 39
166 164 170 158 153 132 127 122 106 87 57 43 16 25 38 33 28 23 33 25 17 16 17 16 19 28 48 63 70 74 67 78 83 83 80 77 70 58 26 37 42 45 43
172 168 169 167 163 151 137 132 134 120 87 26 15 29 38 33 31 35 38 25 21 20 20 19 22 40 68 78 88 95 83 98 95 91 88 77 63 51 37 13 13 25 44
173 174 172 173 175 164 153 147 167 177 12 340 342 55 45 38 36 46 34 29 25 20 24 25 26 31 59 68 90 86 86 132 121 125 114 83 56 40 23 7 14 9 18
179 184 181 182 189 174 173 185 213 251 285 272 264 86 50 34 30 38 33 30 25 27 30 28 22 11 33 309 255 224 239 226 215 206 201 207 283 347 335 338 337 339 338
189 193 187 192 197 192 188 199 165 219 260 249 242 219 339 353 353 29 26 18 20 25 29 27 32 318 309 345 282 278 254 213 236 230 228 233 245 286 288 292 283 280 303
200 195 192 198 199 204 205 207 230 290 286 244 226 221 252 261 265 284 329 352 354 14 14 11 13 352 316 298 296 290 266 263 303 222 236 239 252 269 274 268 260 257 257
206 196 197 200 202 206 214 211 221 255 267 234 222 235 252 254 259 272 289 303 318 327 333 319 323 300 294 277 282 257 267 278 288 279 234 246 254 264 272 266 253 251 253
201 199 198 200 204 213 220 218 225 245 253 252 258 262 252 253 262 266 269 278 285 289 289 284 282 273 268 268 263 273 265 265 260 267 289 256 265 258 265 259 255 257 256
199 198 198 200 206 215 221 230 237 244 250 259 261 262 258 253 256 262 264 267 272 274 274 274 274 269 263 265 264 261 256 261 261 256 271 284 283 282 261 248 246 242 241